[[{"header":{"parameterUnit":"m.s-1","parameterCategory":1,"la1":30.2991,"la2":30.254,"lo1":-89.0895,"lo2":-89.0444,"dy":0.0017,"dx":0.0017,"nx":28,"ny":28,"refTime":"2024-04-14T03:00:00:Z","depth":0,"parameterNumber":2,"parameterNumberName":"U-component_of_WINDS"},"data":[0,0,0,0,0,0,0,0,0,0,0,0,0,0,0,0,0,0,0,0,0,0,0,0,0,0,0,0,0,0,0,0,0,0,0,0,0,0,0,0,0,0,0,0,0,0,0,0,0,0,0,0,0,0,0,0,0,0,1.7297,1.7298,0,1.737,1.7371,1.7371,1.7354,1.7353,1.7351,1.735,1.7425,1.7429,1.7432,0,0,0,0,0,0,0,0,0,0,0,0,0,1.7142,1.7145,1.7297,1.7298,1.7299,1.737,1.7371,1.7372,1.7354,1.7353,1.7351,1.7349,1.7424,1.7428,1.7432,0,0,0,0,0,0,0,0,0,0,0,0,0,1.7212,1.7146,1.7297,1.7298,1.7299,1.7369,1.7371,1.7372,1.7355,1.7352,1.735,1.7348,1.7423,1.7428,1.7433,1.7506,0,0,1.7448,1.745,0,0,0,0,0,0,0,0,1.7208,1.7217,1.7297,1.7298,1.73,1.7351,1.7344,1.7417,1.7355,1.7334,1.735,1.7347,1.7402,1.7409,1.7427,1.7509,1.7513,1.7448,1.7452,1.7454,1.7455,0,0,0,0,0,0,0,1.7203,1.7214,1.7326,1.7298,1.73,1.7296,1.7303,1.7358,1.7379,1.7335,1.7334,1.7343,1.7403,1.7422,1.7429,1.7514,1.7448,1.7453,1.7456,1.7458,1.7657,1.7659,0,0,0,0,0,0,1.7197,1.721,1.7323,1.7328,1.7247,1.73,1.7308,1.7336,1.7378,1.7383,1.7345,1.7342,1.7415,1.7423,1.7431,1.7518,1.7454,1.7458,1.7461,1.7655,1.7658,1.766,0,0,0,0,0,0,1.7194,1.7207,1.732,1.7269,1.7283,1.7305,1.7336,1.7339,1.7359,1.7385,1.7389,1.7361,1.7414,1.7424,1.7487,1.752,1.7461,1.7465,1.7652,1.7656,1.7659,1.7692,0,0,0,0,0,0,1.7189,1.7206,1.7234,1.727,1.7286,1.7375,1.7339,1.7342,1.7367,1.7364,1.7402,1.7406,1.7413,1.748,1.7492,1.7526,1.7469,1.7649,1.7654,1.7658,1.7688,1.7697,1.7704,0,0,0,0,0,1.7184,1.7242,1.7236,1.725,1.7321,1.7377,1.7386,1.7392,1.737,1.7398,1.7415,1.7405,1.7515,1.7486,1.75,1.7536,1.7647,1.7653,1.7658,1.7685,1.7695,1.7703,0,0,0,0,0,0,1.7211,1.7246,1.724,1.7311,1.7341,1.7374,1.741,1.7403,1.744,1.7436,1.7443,1.7451,1.7514,1.7532,1.7499,1.7608,1.7578,1.7586,1.7594,1.7604,1.7611,1.7605,1.7473,0,0,0,0,0,1.7224,1.7267,1.7296,1.7355,1.737,1.7388,1.7412,1.7414,1.7446,1.7458,1.748,1.7511,1.7552,1.7579,1.7619,1.7691,1.7698,1.7723,1.7731,1.7737,1.7743,1.7781,1.7791,1.7677,1.7677,1.7677,0,0,1.7254,1.7279,1.7305,1.7361,1.7385,1.7427,1.7398,1.7446,1.7477,1.7466,1.7525,1.7542,1.7577,1.7644,1.7675,1.766,1.7776,1.7743,1.7748,1.7751,1.7787,1.7798,1.7808,1.7681,1.768,1.768,0,0,1.7329,1.7353,1.7404,1.7428,1.7463,1.7474,1.7486,1.752,1.753,1.759,1.7582,1.762,1.7691,1.7716,1.7738,1.7821,1.7812,1.7834,1.7873,1.791,1.7918,1.7926,1.7954,1.7964,1.7841,1.7841,1.7841,0,1.7361,1.7425,1.7431,1.7479,1.7503,1.7494,1.7545,1.7568,1.7615,1.7631,1.7615,1.7703,1.7726,1.7798,1.7818,1.7837,1.785,1.7829,1.7917,1.7925,1.7932,1.7959,1.7969,1.7843,1.7843,1.7842,1.7842,0,1.7462,1.7507,1.7544,1.7588,1.7617,1.7666,1.7679,1.7707,1.7707,1.7719,1.7779,1.7807,1.7851,1.7868,1.7869,1.794,1.7929,1.7915,1.7885,1.7945,1.797,1.7981,1.7846,1.7845,1.7845,1.7844,0,0,1.7556,1.7602,1.7615,1.7634,1.7672,1.7707,1.7755,1.7798,1.7821,1.7854,1.7893,1.7954,1.794,1.7965,1.7968,1.8,1.8062,1.7982,1.7982,1.7994,1.814,1.8149,1.8161,1.8057,1.8059,1.806,1.8136,0,1.7633,1.7717,1.7723,1.78,1.784,1.7831,1.7873,1.7901,1.7914,1.795,1.7964,1.8006,1.7985,1.8,1.8032,1.8048,1.8091,1.8043,1.8093,1.8095,1.8083,1.8174,1.8185,1.8254,1.8146,1.8148,1.8149,0,1.7734,1.7768,1.7848,1.7879,1.7896,1.7933,1.7972,1.8007,1.8038,1.8044,1.8071,1.807,1.8119,1.8088,1.8154,1.8121,1.8142,1.8153,1.8156,1.816,1.8124,1.8178,1.8277,1.8287,1.8165,1.8163,1.8162,0,1.7791,1.7858,1.7914,1.7931,1.7969,1.7995,1.8012,1.804,1.8065,1.8099,1.8115,1.8154,1.8175,1.8206,1.8215,1.8192,1.8281,1.8251,1.8287,1.8286,1.8305,1.8303,1.8406,1.8321,1.8321,1.8321,1.8321,0,1.7876,1.7925,1.794,1.7974,1.8028,1.8035,1.8088,1.8103,1.8129,1.8165,1.8161,1.8196,1.8206,1.8242,1.825,1.8303,1.8313,1.8319,1.832,1.8318,1.8317,1.8331,1.8326,1.8324,1.8323,1.8323,1.8322,0,1.7949,1.7961,1.8021,1.8052,1.806,1.8099,1.8124,1.8157,1.8169,1.8215,1.8226,1.8245,1.8287,1.8299,1.8351,1.8355,1.8417,1.8415,1.8406,1.8406,1.844,1.8436,1.8555,1.857,1.8476,1.8477,1.8478,0,1.8001,1.8038,1.8072,1.8096,1.8113,1.8152,1.8177,1.8185,1.8211,1.8248,1.8275,1.8317,1.835,1.8418,1.8436,1.8475,1.8472,1.8511,1.8478,1.8474,1.847,1.8467,1.847,1.8517,1.8518,1.8518,1.8519,0,1.8091,1.8095,1.8131,1.8168,1.8197,1.8228,1.8257,1.8276,1.8288,1.8317,1.836,1.8386,1.8437,1.8478,1.8517,1.8534,1.8528,1.853,1.854,1.8537,1.853,1.8532,1.8421,1.8526,1.8526,1.8525,1.8525,1.8525,1.8154,1.8186,1.8214,1.8253,1.8276,1.8302,1.8334,1.8349,1.8385,1.8426,1.8429,1.8475,1.8504,1.8555,1.8574,1.861,1.8599,1.8614,1.8617,1.862,1.8622,1.8526,1.8617,1.8617,1.8617,1.8617,1.8617,0,1.8242,1.826,1.8296,1.8336,1.8367,1.8358,1.839,1.8416,1.8456,1.8483,1.8515,1.8564,1.8603,1.8624,1.8663,1.8687,1.8685,1.8697,1.8694,1.8698,1.8631,1.8618,1.8697,1.8697,1.8697,1.8697,1.8697,1.8697,1.8292,1.8344,1.8352,1.8415,1.8432,1.8476,1.8495,1.8519,1.854,1.8594,1.8626,1.8639,1.8664,1.8704,1.8739,1.8744,1.8758,1.8771,1.8774,1.8711,1.8703,1.8695,1.8682,1.8774,1.8774,1.8838,1.8839,1.8839]},{"header":{"parameterUnit":"m.s-1","parameterCategory":1,"la1":30.2991,"la2":30.254,"lo1":-89.0895,"lo2":-89.0444,"dy":0.0017,"dx":0.0017,"nx":28,"ny":28,"refTime":"2024-04-14T03:00:00:Z","depth":0,"parameterNumber":3,"parameterNumberName":"V-component_of_WINDS"},"data":[0,0,0,0,0,0,0,0,0,0,0,0,0,0,0,0,0,0,0,0,0,0,0,0,0,0,0,0,0,0,0,0,0,0,0,0,0,0,0,0,0,0,0,0,0,0,0,0,0,0,0,0,0,0,0,0,0,0,2.9087,2.9088,0,2.9185,2.9186,2.9187,2.9176,2.9175,2.9173,2.9172,2.9266,2.927,2.9274,0,0,0,0,0,0,0,0,0,0,0,0,0,2.8884,2.8888,2.9087,2.9088,2.9089,2.9185,2.9186,2.9188,2.9176,2.9174,2.9173,2.9171,2.9265,2.927,2.9275,0,0,0,0,0,0,0,0,0,0,0,0,0,2.8976,2.8889,2.9087,2.9095,2.9097,2.9185,2.9186,2.9188,2.9177,2.9174,2.9172,2.917,2.9264,2.9269,2.9275,2.9359,0,0,2.9293,2.9296,0,0,0,0,0,0,0,0,2.8971,2.8984,2.9093,2.9095,2.9097,2.9166,2.915,2.9245,2.9177,2.9146,2.9171,2.9169,2.9235,2.9243,2.9266,2.9363,2.9367,2.9294,2.9298,2.93,2.9302,0,0,0,0,0,0,0,2.8965,2.8979,2.9126,2.9094,2.9097,2.9093,2.9103,2.9168,2.9202,2.9149,2.9148,2.916,2.9235,2.926,2.9268,2.9368,2.9294,2.9299,2.9303,2.9305,2.9537,2.954,0,0,0,0,0,0,2.8957,2.8974,2.9122,2.9129,2.9027,2.9098,2.911,2.9146,2.9201,2.9208,2.9162,2.916,2.9251,2.9261,2.9271,2.9372,2.93,2.9306,2.9309,2.9535,2.9538,2.9541,0,0,0,0,0,0,2.8953,2.897,2.9118,2.9051,2.907,2.9104,2.9145,2.9149,2.9175,2.9212,2.9217,2.9182,2.925,2.9263,2.9337,2.9375,2.9308,2.9314,2.9532,2.9536,2.9539,2.9574,0,0,0,0,0,0,2.8947,2.8969,2.9002,2.9052,2.9073,2.9184,2.9147,2.9153,2.9186,2.9183,2.9232,2.9237,2.9249,2.9328,2.9343,2.9382,2.9318,2.9528,2.9533,2.9538,2.957,2.9579,2.9586,0,0,0,0,0,2.894,2.9007,2.9004,2.9022,2.9116,2.9187,2.9199,2.9212,2.9189,2.9222,2.9245,2.9236,2.9369,2.9336,2.9352,2.9394,2.9526,2.9532,2.9538,2.9566,2.9577,2.9586,0,0,0,0,0,0,2.8959,2.9014,2.9011,2.9097,2.9137,2.9185,2.9227,2.9224,2.927,2.9265,2.9279,2.929,2.9364,2.9386,2.9349,2.9477,2.9444,2.9453,2.946,2.947,2.9479,2.9471,2.9323,0,0,0,0,0,2.8973,2.9028,2.9072,2.9143,2.9164,2.9192,2.9223,2.923,2.9272,2.9288,2.9318,2.9357,2.9407,2.944,2.9489,2.9573,2.9582,2.9609,2.9618,2.9624,2.9632,2.9677,2.9689,2.956,2.956,2.956,0,0,2.9003,2.904,2.9073,2.9148,2.9181,2.9235,2.9206,2.9265,2.9305,2.9297,2.9369,2.9391,2.9436,2.9515,2.9552,2.9536,2.967,2.9632,2.9637,2.9641,2.9684,2.9697,2.9707,2.9564,2.9563,2.9562,0,0,2.9085,2.9119,2.9183,2.9216,2.9266,2.9284,2.9299,2.9347,2.9362,2.9435,2.943,2.9476,2.9563,2.9595,2.9622,2.9717,2.9709,2.9732,2.9775,2.9819,2.9829,2.9838,2.9871,2.9882,2.9739,2.974,2.974,0,2.9116,2.9199,2.9215,2.9275,2.9307,2.9304,2.9367,2.9398,2.946,2.9481,2.9464,2.9573,2.9602,2.9689,2.9712,2.9734,2.975,2.9726,2.9827,2.9836,2.9845,2.9876,2.9888,2.9742,2.9742,2.9741,2.9741,0,2.9234,2.9291,2.9336,2.9398,2.9436,2.9497,2.952,2.9555,2.9559,2.9578,2.9652,2.9687,2.9743,2.9764,2.9768,2.9851,2.9839,2.9824,2.9791,2.9859,2.9889,2.9901,2.9745,2.9745,2.9744,2.9743,0,0,2.933,2.9401,2.9417,2.9445,2.9499,2.9543,2.9603,2.9659,2.9689,2.9732,2.9782,2.9855,2.9842,2.9873,2.988,2.9918,2.9989,2.9898,2.9899,2.9913,3.0082,3.0092,3.0106,2.9985,2.9987,2.9989,3.0077,0,2.9417,2.9526,2.9541,2.9636,2.9689,2.9687,2.9739,2.9777,2.9796,2.9842,2.9863,2.9915,2.9893,2.9912,2.995,2.9973,3.0023,2.9967,3.0029,3.0031,3.0018,3.0121,3.0133,3.0214,3.0089,3.0091,3.0093,0,2.9533,2.9581,2.9682,2.9729,2.9752,2.9799,2.9851,2.9896,2.9938,2.9949,2.9984,2.9987,3.0047,3.0012,3.0094,3.0055,3.0081,3.0096,3.0099,3.0105,3.0066,3.0129,3.0241,3.0253,3.0111,3.011,3.0108,0,2.9593,2.9682,2.9754,2.9778,2.9835,2.9868,2.9893,2.9933,2.9966,3.001,3.0031,3.0082,3.0109,3.0148,3.0163,3.0136,3.0243,3.021,3.0253,3.0252,3.0275,3.0273,3.0392,3.0293,3.0293,3.0293,3.0293,0,2.9688,2.9749,2.9781,2.9825,2.9894,2.991,2.9976,3.0,3.0036,3.0082,3.0083,3.0127,3.0144,3.019,3.0202,3.0267,3.028,3.0289,3.0292,3.0289,3.0288,3.0306,3.03,3.0296,3.0295,3.0295,3.0294,0,2.9765,2.979,2.9867,2.9916,2.9929,2.9977,3.0017,3.0059,3.0078,3.0137,3.0152,3.0181,3.0235,3.0255,3.032,3.0328,3.0403,3.0401,3.0389,3.039,3.0431,3.0427,3.0565,3.0583,3.0474,3.0475,3.0476,0,2.9824,2.9871,2.9925,2.9958,2.9984,3.0036,3.007,3.0087,3.0122,3.0174,3.0209,3.0263,3.0307,3.0393,3.0419,3.0469,3.0467,3.0512,3.0474,3.047,3.0466,3.0463,3.0467,3.0519,3.052,3.0521,3.0522,0,2.9925,2.9935,2.9985,3.0039,3.0079,3.0122,3.0163,3.0189,3.0212,3.0251,3.0307,3.0342,3.0409,3.0462,3.0513,3.0536,3.0532,3.0533,3.0546,3.0543,3.0534,3.0539,3.0408,3.053,3.0529,3.0528,3.0528,3.0528,2.9995,3.0036,3.0081,3.0136,3.0169,3.0208,3.0249,3.0274,3.0322,3.038,3.0386,3.0446,3.0486,3.0554,3.058,3.0626,3.0613,3.0631,3.0636,3.064,3.0643,3.0528,3.0635,3.0635,3.0635,3.0635,3.0634,0,3.0095,3.0124,3.0174,3.0233,3.0276,3.0271,3.0316,3.0351,3.0405,3.0444,3.0488,3.0552,3.0603,3.0634,3.0685,3.0715,3.0715,3.0728,3.0726,3.0731,3.0651,3.0635,3.0728,3.0728,3.0728,3.0728,3.0728,3.0728,3.0152,3.0223,3.0238,3.0324,3.0352,3.0413,3.0439,3.0473,3.0504,3.0577,3.062,3.064,3.0675,3.0729,3.0775,3.0782,3.0801,3.0815,3.0821,3.0746,3.0736,3.0727,3.0712,3.0819,3.0819,3.0896,3.0897,3.0898]}]]